Weather in Karlivka

Ukraine / Poltava Region     49˚27′18″N   35˚08′04″E
temp.,
°C
wind,
m/s
gust,
m/s
humid.,
%
clouds,
%
prec.,
mm/h
press.,
hPa
HPBL,
m
1 december, tue
tue123:00+5˚ese4976100 0.0 1025634
02:00+4˚ese4877100 0.0 1025583
05:00+2˚ese6971100 0.0 1026520
08:00+1˚ese6973100 0.0 1026534
11:00+2˚ese6873100 0.0 1027640
14:00+2˚ese6975100 0.0 1026767
17:00+1˚e61075100 0.0 1027649
20:00+1˚e61086100 0.0 1027639
2 december, wed
wed223:00e71195100 0.2 1028615
02:00−1˚e71183100 0.3 1028557
05:00−2˚e5980100 0.0 1029517
08:00−2˚e6108198 0.0 1029502
11:00ese687898 0.0 1029636
14:00+1˚e587899 0.0 1028660
17:00e6108099 0.0 1028538
20:00−1˚e6108397 0.0 1029540
3 december, thu
thu323:00−1˚ese599298 0.2 1028480
02:00−1˚e599499 1.0 1028367
05:00ese4896100 0.8 1027279
08:00+1˚e4698100 1.9 1028169
11:00+1˚ese5897100 1.4 1027292
14:00+1˚ese4797100 2.1 1027221
17:00+1˚ese4697100 0.4 1027218
20:00+2˚ese3598100 0.5 1027197
4 december, fri
fri423:00+2˚se249897 0.0 1027169
02:00+2˚se249799 0.0 1027195
05:00+2˚ese3796100 0.0 1027327
08:00+2˚ese5894100 0.0 1028422
11:00+2˚ese5887100 0.0 1027501
14:00+2˚ese5886100 0.0 1027470
17:00+2˚ese61088100 0.0 1027407
20:00+2˚ese61089100 0.0 1028436
5 december, sat
sat523:00+2˚ese61087100 0.0 1028471
02:00+1˚ese588697 0.0 1029509
05:00+1˚ese6985100 0.0 1029556
08:00+1˚ese5983100 0.0 1030439
11:00+2˚ese597663 0.0 1030461
14:00+3˚ese697431 0.0 1030471
17:00−1˚ese610850 0.0 1030357
20:00−2˚ese610820 0.0 1031345